Wind_Speed
7 7 7 6 6 6 5 5 4 3 3 3 2 2 2 2 3 3 4 4 4 4 4 4 3 3 3 3 3 3 3 2 2 1 1 1 1 1 2 2 2 3 3 3
9 9 8 8 8 7 6 6 5 5 5 4 4 3 4 4 4 4 5 5 5 5 5 5 4 3 3 3 3 3 3 3 2 3 3 3 3 2 2 3 2 2 2 3
11 11 10 10 9 8 8 7 6 6 5 5 5 6 6 5 5 5 5 5 6 6 7 7 6 5 5 4 4 4 4 4 4 3 4 5 4 4 4 4 4 4 5 5
12 12 12 11 11 10 10 9 8 8 6 6 6 6 7 7 7 7 6 7 7 6 7 7 8 7 6 5 6 6 6 6 6 5 5 6 6 6 6 5 5 6 7 7
13 13 13 13 12 12 11 11 10 9 8 8 7 7 8 8 8 8 8 7 8 7 8 8 8 9 8 8 8 8 8 8 8 7 7 7 7 8 8 8 8 8 9 10
15 14 14 14 14 13 12 12 11 11 10 10 9 8 9 9 8 9 9 9 9 8 8 8 9 9 9 10 10 10 10 10 10 9 9 9 10 9 10 10 11 11 11 11
17 15 15 14 14 14 13 11 10 10 11 11 11 9 10 10 10 10 10 11 10 9 8 8 8 9 9 10 10 11 11 11 11 11 11 11 11 11 11 12 13 12 12 12
16 16 16 16 15 15 14 13 12 12 12 12 12 11 11 11 11 11 12 11 10 10 10 10 10 10 10 10 10 11 11 11 12 12 12 12 12 13 13 13 13 13 13 14
17 18 18 17 17 16 16 15 14 14 13 12 13 13 13 12 12 12 12 11 10 11 12 12 12 11 11 11 11 12 12 12 13 13 13 14 14 14 14 14 13 14 14 15
17 18 18 18 18 18 18 17 15 15 15 15 14 14 14 13 13 13 13 13 13 12 13 13 13 13 13 13 13 13 13 14 14 15 15 15 16 16 15 15 15 16 16 17
18 18 18 19 19 18 18 18 17 17 17 16 15 15 16 15 14 14 14 15 15 14 14 15 16 15 15 15 15 15 15 15 16 17 17 17 17 16 16 17 18 18 19 18
18 18 18 19 19 19 18 18 17 18 19 18 17 17 18 17 16 15 15 15 16 15 15 17 17 17 17 17 17 17 18 18 18 18 18 18 18 18 18 19 19 20 20 20
19 18 18 17 19 20 20 20 19 19 20 20 18 19 20 20 19 18 17 17 17 17 16 18 18 19 19 19 19 19 19 20 20 21 21 20 20 20 20 20 20 21 21 21
20 20 19 19 19 20 21 21 20 20 20 21 21 20 22 21 20 19 19 20 19 19 19 19 20 21 21 21 20 20 21 22 22 22 22 22 22 21 21 21 21 21 21 21
22 22 21 21 21 21 21 22 22 22 22 22 22 22 23 23 22 22 21 21 21 21 21 20 21 22 22 22 22 22 22 22 22 23 23 23 23 23 23 23 23 23 22 22
24 24 23 23 22 22 22 22 22 23 23 23 23 24 24 25 24 23 23 23 23 22 22 22 23 23 23 24 24 25 25 25 24 24 24 25 24 24 24 24 24 24 24 24
25 25 24 23 23 24 24 22 22 23 24 24 23 24 25 25 25 24 24 24 24 24 24 25 25 25 24 25 25 26 27 26 26 26 26 26 26 25 25 25 25 26 25 25
26 26 25 24 25 25 25 24 24 24 23 24 24 24 25 25 25 25 25 24 24 25 26 27 27 26 26 26 26 27 28 28 28 28 28 27 27 27 27 26 26 27 27 27
26 26 25 25 25 26 26 25 24 24 25 25 24 24 24 25 26 25 24 24 24 25 26 27 28 28 28 29 29 29 29 29 29 29 30 29 29 29 29 29 28 28 28 28
26 25 25 26 26 26 27 25 24 24 25 25 24 24 24 25 25 25 25 25 25 26 27 27 28 29 29 30 30 30 30 30 30 30 30 30 30 30 31 31 30 30 30 29
25 25 26 26 26 26 26 25 25 25 25 25 25 26 26 26 25 26 26 26 26 27 27 27 28 28 29 30 30 30 31 31 31 31 31 30 31 31 31 32 32 31 31 30
26 26 27 27 27 27 26 25 25 25 26 26 27 27 27 27 27 27 27 28 28 28 28 28 29 29 29 30 30 30 30 31 31 31 31 31 31 31 32 33 33 32 32 31
28 28 28 28 28 28 26 26 26 26 26 26 27 27 27 27 27 27 27 27 28 28 29 29 29 29 30 30 30 30 30 30 30 31 31 31 32 32 32 33 33 32 32 32
29 28 28 28 28 27 27 27 27 26 26 26 26 26 27 27 27 27 27 28 28 28 28 29 29 30 30 30 30 31 32 32 31 31 31 32 32 32 32 32 32 33 33 33
28 28 27 27 27 27 27 27 26 26 27 26 26 26 26 27 27 27 27 28 28 28 28 28 29 30 30 30 31 32 32 32 32 32 32 33 33 33 32 32 33 34 34 33
27 26 26 26 26 26 26 25 26 26 26 26 26 26 26 27 26 26 27 27 28 28 28 28 29 29 29 29 30 31 32 33 33 33 33 33 33 34 34 33 33 34 34 33
Wind_Direction
220 221 223 225 222 222 226 226 233 247 253 263 276 298 309 322 335 339 338 330 327 334 336 335 340 342 341 346 355 15 18 24 24 346 344 326 270 236 232 254 258 268 272 274
224 227 226 228 228 231 235 242 245 253 261 267 276 293 305 307 313 323 330 326 319 315 312 312 309 312 317 322 323 332 338 340 347 346 344 336 307 281 273 282 282 284 287 293
227 229 228 226 231 236 241 247 253 258 265 278 282 289 298 301 303 308 316 320 315 312 301 298 301 305 303 300 299 300 305 305 308 315 320 324 322 304 289 285 280 279 281 286
229 229 227 229 233 238 243 248 254 261 266 277 276 284 293 293 297 302 306 308 309 303 298 295 296 300 297 290 293 293 294 293 290 292 302 309 312 312 304 293 288 285 286 285
229 228 228 232 235 240 243 245 251 259 263 271 274 282 289 287 290 298 299 301 302 298 291 290 290 294 294 290 289 290 287 285 287 287 293 296 299 302 301 298 296 289 284 286
231 232 234 237 239 244 246 249 255 262 267 271 272 274 278 281 289 294 296 299 297 294 288 285 286 289 292 292 289 288 286 284 286 285 290 291 291 292 293 294 296 299 294 288
234 236 239 239 240 245 247 251 261 267 269 269 272 272 275 282 285 288 293 298 296 288 286 283 284 284 286 289 289 287 284 283 282 284 285 286 289 291 293 294 293 295 296 298
236 239 241 240 240 244 246 245 245 251 260 266 270 271 273 280 283 284 288 292 291 286 283 280 278 280 279 281 283 283 282 282 284 285 284 287 290 293 297 293 292 292 292 293
237 241 244 244 244 245 245 244 246 253 259 260 269 274 272 276 281 284 286 288 288 287 284 282 280 278 277 277 280 281 282 283 285 287 287 286 290 293 293 290 290 292 290 289
240 243 245 246 246 247 246 246 246 248 254 263 270 275 270 272 276 281 284 285 285 286 284 282 281 279 277 277 278 279 279 280 282 284 285 286 287 289 290 287 289 289 288 287
239 243 246 246 244 248 248 246 246 250 253 259 268 272 272 272 275 279 282 283 284 284 284 283 283 282 280 279 278 279 279 280 282 284 284 284 286 287 287 286 287 289 288 286
239 242 245 247 248 247 248 249 250 254 256 258 264 271 274 272 272 276 278 279 283 281 280 280 280 280 280 278 279 280 280 280 282 284 284 283 284 286 285 285 284 288 286 287
240 242 247 252 253 250 248 250 253 255 259 261 263 268 272 273 273 274 274 275 278 279 279 280 279 279 278 278 278 278 279 282 282 282 282 282 282 283 284 285 286 287 287 287
242 244 244 248 253 255 252 250 252 255 259 263 261 263 270 273 273 275 274 273 275 276 276 277 278 279 279 279 277 278 281 282 280 279 280 281 280 281 282 284 286 287 286 286
244 248 248 249 254 257 258 254 253 256 257 260 264 265 267 272 273 276 276 275 275 274 274 274 275 277 278 278 277 279 279 280 279 278 279 280 280 281 282 283 285 286 287 287
246 249 251 253 255 257 258 257 258 259 259 261 263 265 267 270 273 276 276 276 274 273 272 273 274 275 275 276 276 277 278 277 279 281 281 281 282 281 282 282 282 283 285 286
247 251 252 255 257 258 258 257 258 260 261 263 265 267 269 270 272 274 275 275 273 271 271 272 274 275 276 277 277 278 278 278 279 280 281 281 281 281 281 280 281 282 283 284
249 251 253 255 258 260 261 261 260 262 263 263 264 267 270 273 274 275 275 273 270 270 270 270 272 274 276 278 278 279 278 278 277 277 279 278 280 281 281 281 282 282 282 282
248 251 253 255 258 261 262 263 263 263 263 264 266 267 269 271 273 272 272 270 269 270 270 271 273 276 277 278 278 278 279 280 280 280 279 279 278 279 280 281 282 283 283 282
248 250 253 255 255 259 263 264 263 263 263 262 264 267 268 270 272 273 272 271 271 271 272 273 273 275 276 277 278 278 280 280 280 280 280 279 279 278 279 280 280 282 283 284
249 251 252 255 257 259 263 264 263 261 263 264 265 267 269 269 270 272 273 274 273 272 273 274 274 275 276 276 277 278 280 280 280 280 280 280 279 278 279 280 281 282 283 283
251 253 253 254 255 257 260 262 261 261 262 264 266 267 269 271 270 271 274 275 275 274 273 275 275 276 277 277 277 278 278 278 279 280 280 281 280 279 279 280 280 280 281 282
249 251 253 254 255 258 259 259 260 261 262 264 266 267 269 270 271 273 275 276 276 275 275 275 276 277 277 278 277 276 278 278 280 280 279 280 282 282 281 281 280 278 278 279
250 251 252 255 256 256 257 259 260 260 262 263 266 268 269 272 273 275 276 277 276 275 275 276 277 278 279 279 278 277 277 278 280 280 280 280 282 284 283 281 280 278 277 277
249 250 252 253 254 255 256 258 259 262 264 266 267 269 270 273 274 276 277 278 277 276 276 277 278 278 279 279 279 278 279 279 280 281 281 281 282 283 283 281 280 279 278 276
247 249 250 251 253 255 257 258 260 264 266 269 270 272 273 273 274 277 278 279 278 278 277 278 279 279 280 280 281 281 281 280 281 282 282 283 283 283 282 281 280 280 279 277
Height
5912 5914 5915 5915 5916 5916 5917 5917 5917 5917 5916 5915 5915 5914 5914 5913 5912 5911 5910 5908 5907 5906 5905 5904 5903 5902 5901 5900 5899 5898 5897 5896 5895 5894 5893 5893 5892 5891 5891 5890 5889 5889 5888 5888
5911 5912 5913 5913 5914 5914 5915 5916 5916 5916 5915 5915 5915 5914 5913 5912 5912 5911 5909 5908 5907 5906 5905 5904 5903 5902 5901 5900 5899 5898 5897 5896 5895 5894 5894 5893 5892 5891 5890 5890 5889 5888 5888 5887
5908 5910 5910 5911 5912 5913 5913 5914 5915 5914 5914 5914 5914 5914 5913 5912 5911 5910 5909 5908 5907 5906 5905 5903 5902 5901 5900 5899 5898 5898 5897 5896 5895 5894 5893 5892 5892 5890 5890 5889 5888 5887 5887 5886
5905 5907 5908 5909 5910 5911 5912 5912 5912 5913 5913 5913 5914 5914 5912 5911 5910 5909 5908 5907 5906 5905 5904 5903 5901 5900 5899 5899 5898 5897 5896 5895 5894 5894 5893 5892 5891 5890 5889 5888 5887 5886 5885 5884
5903 5904 5905 5906 5908 5908 5909 5910 5910 5910 5911 5912 5912 5912 5912 5909 5908 5908 5907 5905 5904 5903 5902 5901 5900 5899 5898 5897 5896 5895 5894 5894 5893 5892 5892 5891 5890 5889 5888 5886 5885 5884 5883 5883
5900 5901 5902 5904 5905 5905 5906 5907 5908 5908 5909 5910 5910 5910 5910 5908 5907 5906 5905 5903 5902 5901 5900 5899 5898 5897 5896 5895 5894 5894 5893 5892 5891 5890 5890 5889 5888 5887 5886 5885 5884 5882 5881 5880
5897 5898 5899 5900 5901 5902 5903 5906 5907 5908 5908 5908 5907 5907 5907 5905 5904 5904 5902 5901 5899 5898 5898 5897 5896 5896 5895 5894 5893 5892 5891 5890 5889 5888 5887 5886 5886 5885 5884 5883 5881 5880 5879 5878
5894 5896 5896 5897 5898 5899 5900 5902 5905 5906 5906 5906 5904 5904 5904 5902 5901 5901 5900 5898 5897 5896 5895 5895 5894 5893 5892 5891 5891 5890 5889 5888 5887 5886 5885 5884 5883 5882 5881 5880 5879 5877 5876 5875
5890 5892 5892 5893 5894 5896 5896 5898 5900 5901 5901 5902 5902 5901 5901 5899 5898 5898 5897 5895 5894 5893 5892 5891 5891 5890 5889 5889 5888 5887 5886 5886 5885 5884 5883 5881 5880 5879 5878 5877 5875 5874 5873 5872
5885 5887 5888 5889 5890 5891 5893 5894 5896 5897 5897 5899 5899 5898 5898 5896 5895 5894 5893 5892 5891 5890 5889 5888 5887 5887 5886 5885 5885 5884 5883 5882 5881 5880 5879 5878 5877 5876 5874 5873 5872 5871 5870 5869
5881 5884 5885 5885 5886 5888 5889 5890 5891 5893 5894 5895 5896 5897 5893 5892 5891 5890 5890 5888 5888 5886 5885 5885 5884 5883 5882 5882 5881 5880 5879 5878 5877 5876 5875 5874 5873 5872 5871 5869 5868 5867 5865 5864
5876 5879 5880 5881 5882 5882 5884 5885 5887 5889 5888 5889 5891 5893 5888 5887 5887 5886 5885 5884 5884 5883 5882 5881 5880 5879 5878 5877 5877 5876 5875 5874 5873 5872 5871 5870 5869 5868 5866 5865 5863 5862 5860 5859
5872 5874 5876 5877 5879 5878 5879 5880 5881 5883 5883 5884 5886 5888 5883 5882 5882 5881 5881 5880 5879 5879 5878 5877 5876 5875 5874 5873 5872 5871 5870 5870 5869 5868 5867 5865 5864 5863 5861 5860 5858 5857 5855 5854
5867 5868 5872 5874 5873 5873 5873 5875 5876 5877 5878 5879 5879 5880 5878 5877 5876 5876 5876 5875 5874 5873 5873 5872 5871 5869 5869 5868 5867 5866 5865 5864 5863 5862 5861 5860 5859 5857 5856 5855 5853 5851 5850 5849
5861 5863 5864 5866 5867 5867 5868 5869 5869 5870 5872 5873 5873 5872 5872 5871 5871 5870 5870 5869 5869 5868 5867 5866 5865 5865 5864 5863 5862 5861 5860 5859 5858 5857 5856 5854 5853 5852 5850 5849 5847 5846 5844 5843
5854 5857 5858 5859 5860 5861 5862 5863 5863 5864 5865 5866 5866 5866 5865 5865 5864 5864 5864 5863 5863 5862 5861 5860 5860 5859 5858 5857 5856 5855 5854 5853 5852 5851 5849 5848 5847 5845 5844 5842 5841 5839 5838 5836
5848 5850 5852 5854 5854 5854 5855 5857 5857 5858 5858 5859 5859 5860 5858 5858 5858 5858 5857 5857 5856 5856 5855 5854 5853 5852 5852 5850 5850 5849 5847 5846 5845 5844 5843 5841 5840 5839 5837 5836 5835 5833 5831 5830
5841 5843 5845 5847 5848 5848 5851 5849 5850 5851 5851 5851 5851 5852 5852 5851 5851 5850 5850 5850 5850 5849 5848 5848 5847 5846 5845 5843 5842 5841 5840 5839 5838 5836 5835 5834 5833 5831 5830 5829 5827 5826 5824 5823
5834 5836 5838 5840 5841 5841 5842 5842 5843 5844 5844 5844 5844 5844 5844 5844 5844 5843 5843 5843 5842 5842 5841 5840 5839 5838 5837 5836 5835 5834 5832 5831 5830 5828 5827 5826 5825 5824 5823 5821 5819 5818 5816 5815
5826 5828 5831 5831 5833 5834 5835 5835 5836 5837 5836 5837 5837 5837 5837 5837 5837 5836 5836 5835 5835 5834 5833 5832 5831 5830 5829 5828 5827 5825 5824 5822 5821 5819 5818 5817 5816 5815 5814 5812 5811 5809 5808 5806
5819 5821 5823 5824 5825 5826 5827 5828 5829 5831 5830 5830 5829 5829 5829 5829 5830 5829 5828 5827 5827 5826 5825 5824 5823 5822 5821 5820 5818 5817 5815 5813 5811 5810 5809 5808 5806 5805 5804 5803 5801 5800 5799 5797
5812 5814 5815 5816 5818 5820 5819 5820 5821 5822 5822 5821 5821 5822 5822 5822 5821 5820 5820 5819 5818 5818 5817 5816 5815 5814 5812 5811 5809 5808 5806 5804 5802 5801 5799 5798 5797 5795 5794 5793 5792 5791 5789 5788
5804 5806 5807 5809 5811 5811 5811 5812 5812 5813 5814 5814 5814 5814 5814 5813 5813 5812 5812 5811 5810 5809 5808 5807 5806 5805 5804 5802 5800 5799 5797 5796 5794 5792 5791 5789 5787 5786 5784 5783 5782 5781 5780 5779
5795 5797 5799 5800 5801 5802 5803 5804 5804 5805 5805 5806 5806 5806 5806 5805 5805 5804 5803 5802 5802 5801 5800 5799 5797 5796 5794 5793 5791 5790 5788 5787 5785 5783 5781 5780 5778 5776 5774 5773 5772 5771 5770 5769
5787 5789 5791 5792 5793 5794 5795 5796 5797 5797 5797 5798 5798 5798 5798 5797 5796 5796 5795 5794 5793 5792 5791 5790 5788 5787 5785 5783 5782 5780 5779 5777 5776 5774 5772 5770 5769 5767 5765 5764 5762 5761 5760 5759
5780 5782 5783 5784 5786 5787 5788 5788 5789 5790 5790 5790 5790 5790 5789 5789 5788 5787 5786 5785 5784 5783 5782 5781 5779 5778 5776 5774 5773 5771 5769 5768 5766 5764 5762 5761 5759 5757 5755 5754 5752 5751 5750 5748